Regional Weather Roundup
Issued by NWS

Home | Current Version | Previous Version | Text Only | Print | Product List | Glossary On
Versions: 1 2 3 4 5 6 7 8 9 10 11 12 13 14 15 16 17 18 19 20 21 22 23 24 25 26 27 28 29 30 31 32 33 34 35 36 37 38 39 40 41 42 43 44 45 46 47 48 49 50
000
ASUS43 KLOT 280808
RWRIL

ILLINOIS REGIONAL WEATHER ROUNDUP
NATIONAL WEATHER SERVICE CHICAGO/ROMEOVILLE IL
300 AM CDT SUN AUG 28 2016

NOTE: "FAIR" INDICATES FEW OR NO CLOUDS BELOW 12,000 FEET WITH NO
SIGNIFICANT WEATHER AND/OR OBSTRUCTIONS TO VISIBILITY.

* THESE STATIONS ARE NOT UNDER NWS QUALITY CONTROL. THEY ALSO MAY NOT
  REPORT WEATHER SUCH AS PRECIPITATION OR FOG.

ILZ001-002-007-009-015-016-024-280900-
NORTHWEST ILLINOIS

CITY           SKY/WX    TMP DP  RH WIND       PRES   REMARKS
MOLINE         CLEAR     69  68  96 E3        30.10R
STERLING*      PTCLDY    70  70 100 CALM      30.12R
SAVANNA*       CLEAR     67  67  98 CALM      30.12R
$$

ILZ003-004-008-010-011-017-018-280900-
NORTH CENTRAL ILLINOIS

CITY           SKY/WX    TMP DP  RH WIND       PRES   REMARKS
ROCKFORD       CLOUDY    70  67  90 CALM      30.13R
FREEPORT*      PTCLDY    63  62  98 CALM      30.15R
ROCHELLE*      FOG       67  67 100 CALM      30.13R VSB 1
DE KALB*       PTCLDY    69  69  97 CALM      30.14R
$$

ILZ005-006-012>014-019>023-280900-
NORTHEAST ILLINOIS

CITY           SKY/WX    TMP DP  RH WIND       PRES   REMARKS
CHICAGO-OHARE  MOCLDY    73  70  90 CALM      30.12R
CHICAGO-MIDWAY MOCLDY    75  70  84 W5        30.11R
AURORA         PTCLDY    69  67  93 CALM      30.13R
LANSING*       CLOUDY    74  72  94 CALM      30.13R
JOLIET*        PTCLDY    73  72  98 CALM      30.12R
WAUKEGAN       PTCLDY    70  69  97 N3        30.12R
DUPAGE AIRPORT NOT AVBL
KANKAKEE*      CLOUDY    72  70  94 CALM      30.13S
WHEELING       PTCLDY    72  68  87 CALM      30.13R
MORRIS*        PTCLDY    71  70  97 CALM      30.11R
ROMEOVILLE*    MOCLDY    70  70 100 CALM      30.12S
$$

LMZ740>746-280900-
SOUTHERN LAKE MICHIGAN

STATION/POSITION SKY/WX   TEMP    WIND        PRES    VSBY  WAVE
                          AIR SEA DIR/SP/G                  HT/PER
                          (F)     (DEG/KT/KT) (MB)    (MI)  (FT/S)
SOUTHERN BUOY              72 75  350/ 10/ 12 1019.0R         1
WILMETTE HARBOR            72 70  240/  2/  2   N/A           0
HARRISON CRIB              78     300/  2/  3   N/A
BURNHAM HARBOR             74     300/  3/  4   N/A
CALUMET HARBOR             77     250/  2/  4 1019.0R
BURNS HARBOR               76     180/  5/  8 1020.0R
MICHIGAN CITY              76     150/  3/  3   N/A
MICHIGAN CITY 6N           76 76  190/  4/  6   N/A           1
ST. JOSEPH                 76 75  190/  6/ 10 1019.5R         1
$$

ILZ025>027-034>036-040-047-049-050-058-095>099-280900-
WEST-CENTRAL ILLINOIS

CITY           SKY/WX    TMP DP  RH WIND       PRES   REMARKS
QUINCY         PTCLDY    72  71  97 SE3       30.10S
GALESBURG*       N/A     68  68  99 CALM      30.11S FOG
MACOMB*        PTCLDY    69  68  99 CALM      30.13S
JACKSONVILLE*  CLOUDY    71  70  95 CALM      30.12R
PITTSFIELD*    MOCLDY    72  71  97 CALM      30.12S
$$

ILZ028>032-037-038-041>044-048-051>054-059>061-280900-
CENTRAL ILLINOIS

CITY           SKY/WX    TMP DP  RH WIND       PRES   REMARKS
PONTIAC        MOCLDY    71  71  99 CALM      30.13R
BLOOMINGTON    CLOUDY    71  69  93 CALM      30.14R
DECATUR        CLOUDY    70  68  93 E5        30.13R
PEORIA         CLEAR     72  72 100 CALM      30.11R
LACON*         CLEAR     70  69  97 CALM      30.11R
LINCOLN*       MOCLDY    72  71  98 CALM      30.12S
SPRINGFIELD    PTCLDY    76  73  91 CALM      30.12R
TAYLORVILLE    CLOUDY    72  72  99 CALM      30.11F
$$

ILZ033-039-045-046-055>057-062-063-280900-
EAST-CENTRAL ILLINOIS

CITY           SKY/WX    TMP DP  RH WIND       PRES   REMARKS
CHAMPAIGN      PTCLDY    70  68  93 CALM      30.14R
RANTOUL*       PTCLDY    72  70  94 CALM      30.14R
MATTOON        CLEAR     74  71  91 S5        30.11S
PARIS*         CLEAR     69  69 100 CALM      30.13S FOG
$$

ILZ079-100>102-280900-
SOUTHWEST ILLINOIS

CITY           SKY/WX    TMP DP  RH WIND       PRES   REMARKS
ALTON            N/A     71  70  98 CALM      30.12R FOG
BELLEVILLE     MOCLDY    73  73 100 CALM      30.09S
CAHOKIA*       MOCLDY    73  70  90 CALM      30.10R
SPARTA*        PTCLDY    71  71  98 CALM      30.11S
$$

ILZ064>066-069>071-074>076-080>082-084>086-088>090-092>094-280900-
SOUTH-CENTRAL ILLINOIS

CITY           SKY/WX    TMP DP  RH WIND       PRES   REMARKS
CARBONDALE     PTCLDY    72  71  97 CALM      30.10S
CAIRO*         CLEAR     71  71 100 CALM      30.09R FOG
EFFINGHAM*     PTCLDY    70  70 100 CALM      30.13S FOG
MARION         FOG       72  72 100 CALM      30.11S VSB 1/2
MT. VERNON     CLEAR     70  64  83 CALM      30.12S
CENTRALIA*     PTCLDY    70  70 100 CALM      30.10S FOG
SALEM*         CLEAR     73  71  95 CALM      30.11S FOG
METROPOLIS*    CLEAR     73  73  98 CALM      30.10S FOG
$$

ILZ067-068-072-073-078-083-087-091-280900-
SOUTHEAST ILLINOIS

CITY           SKY/WX    TMP DP  RH WIND       PRES   REMARKS
LAWRENCEVILLE  CLEAR     73  73 100 CALM      30.11S
FLORA*         CLEAR     73  72  96 CALM      30.11S
FAIRFIELD*     CLEAR     72  72  99 CALM      30.10S FOG
HARRISBURG*    CLEAR     72  72  99 CALM      30.11R
ROBINSON*      FOG       67  67 100 CALM      30.13R VSB 1/2
CARMI*         CLEAR     72  72 100 W3        30.10S FOG
$$

ABBREVIATIONS USED IN REMARKS
   TC - TEMPERATURE IN CELSIUS
  WCI - WIND CHILL INDEX
   HX - HEAT INDEX
  VSB - VISIBILITY
$$





USA.gov is the U.S. government's official web portal to all federal, state and local government web resources and services.